WZZ59KG EPMO-ENBR

Flight info

Callsign WZZ59KG
Flight time 1h 53m
Altitude 34000
Route OLILA L621 GRUDA DCT BABOT Y41 LARMA DCT LALIL DCT PESUR
Aircraft A21N/M-SDE3FGHIRWY/LB1

Departure

Time 2026-05-03 22:37
Airport Warsaw Modlin Airport (EPMO)

Arrival

Time 2026-05-04 00:31
Airport Bergen Airport, Flesland (ENBR)
Time Latitude Longitude Altitude Speed Heading
2026-05-03 21:57 52.44709 20.64859 339 ft 0 kts 206°
2026-05-03 22:28 52.44709 20.64860 339 ft 0 kts 206°
2026-05-03 22:28 52.44714 20.64864 339 ft 2 kts 208°
2026-05-03 22:28 52.44729 20.64868 338 ft 2 kts 165°
2026-05-03 22:29 52.44743 20.64856 338 ft 2 kts 134°
2026-05-03 22:29 52.44751 20.64834 338 ft 2 kts 101°
2026-05-03 22:29 52.44751 20.64819 338 ft 1 kts 82°
2026-05-03 22:29 52.44750 20.64808 338 ft 0 kts 81°
2026-05-03 22:31 52.44750 20.64809 338 ft 0 kts 81°
2026-05-03 22:31 52.44752 20.64825 338 ft 2 kts 81°
2026-05-03 22:31 52.44755 20.64862 338 ft 4 kts 81°
2026-05-03 22:32 52.44762 20.64931 338 ft 7 kts 82°
2026-05-03 22:32 52.44771 20.65035 338 ft 10 kts 83°
2026-05-03 22:32 52.44783 20.65174 337 ft 15 kts 82°
2026-05-03 22:32 52.44803 20.65381 337 ft 21 kts 81°
2026-05-03 22:33 52.44826 20.65628 339 ft 21 kts 82°
2026-05-03 22:33 52.44849 20.65877 339 ft 22 kts 82°
2026-05-03 22:33 52.44873 20.66141 339 ft 23 kts 83°
2026-05-03 22:33 52.44899 20.66417 338 ft 25 kts 81°
2026-05-03 22:34 52.44926 20.66702 338 ft 26 kts 82°
2026-05-03 22:34 52.44952 20.66978 337 ft 14 kts 83°
2026-05-03 22:34 52.45022 20.67066 336 ft 14 kts 352°
2026-05-03 22:34 52.45131 20.67041 334 ft 16 kts 352°
2026-05-03 22:35 52.45245 20.66995 332 ft 17 kts 341°
2026-05-03 22:35 52.45284 20.66929 331 ft 7 kts 261°
2026-05-03 22:35 52.45277 20.66858 331 ft 0 kts 261°
2026-05-03 22:37 52.45244 20.66460 332 ft 75 kts 260°
2026-05-03 22:37 52.45124 20.65212 333 ft 144 kts 262°
2026-05-03 22:37 52.44955 20.63390 696 ft 167 kts 259°
2026-05-03 22:37 52.44792 20.61609 1576 ft 158 kts 259°
2026-05-03 22:38 52.44640 20.59907 2456 ft 150 kts 259°
2026-05-03 22:38 52.44497 20.58297 3102 ft 143 kts 260°
2026-05-03 22:38 52.44474 20.56633 3423 ft 154 kts 287°
2026-05-03 22:38 52.45196 20.55226 3683 ft 172 kts 319°
2026-05-03 22:39 52.46175 20.53980 3973 ft 186 kts 317°
2026-05-03 22:39 52.47187 20.52568 4274 ft 200 kts 315°
2026-05-03 22:39 52.48260 20.50977 4578 ft 215 kts 314°
2026-05-03 22:39 52.49396 20.49233 4834 ft 233 kts 314°
2026-05-03 22:40 52.50626 20.47302 5133 ft 252 kts 314°
2026-05-03 22:40 52.51923 20.45244 5528 ft 267 kts 314°
2026-05-03 22:40 52.53272 20.43091 6181 ft 272 kts 314°
2026-05-03 22:40 52.54634 20.40909 6876 ft 276 kts 314°
2026-05-03 22:41 52.56004 20.38713 7562 ft 278 kts 314°
2026-05-03 22:41 52.57397 20.36473 8284 ft 280 kts 314°
2026-05-03 22:41 52.58795 20.34218 8973 ft 282 kts 313°
2026-05-03 22:41 52.60184 20.31973 9630 ft 284 kts 312°
2026-05-03 22:42 52.61603 20.29676 10249 ft 287 kts 312°
2026-05-03 22:42 52.63047 20.27330 10601 ft 300 kts 312°
2026-05-03 22:42 52.64567 20.24852 10909 ft 314 kts 312°
2026-05-03 22:42 52.66143 20.22286 11422 ft 320 kts 312°
2026-05-03 22:43 52.67746 20.19680 11996 ft 324 kts 312°
2026-05-03 22:43 52.69357 20.17055 12414 ft 332 kts 312°
2026-05-03 22:43 52.71014 20.14352 12841 ft 340 kts 312°
2026-05-03 22:43 52.72715 20.11574 13273 ft 347 kts 312°
2026-05-03 22:44 52.74445 20.08747 13697 ft 353 kts 312°
2026-05-03 22:44 52.76212 20.05854 14124 ft 359 kts 312°
2026-05-03 22:44 52.77988 20.02941 14543 ft 365 kts 312°
2026-05-03 22:44 52.79770 20.00016 14942 ft 379 kts 312°
2026-05-03 22:45 52.81652 19.96920 15344 ft 390 kts 312°
2026-05-03 22:45 52.83590 19.93733 15725 ft 395 kts 312°
2026-05-03 22:45 52.85543 19.90517 16101 ft 399 kts 312°
2026-05-03 22:45 52.87523 19.87253 16485 ft 403 kts 312°
2026-05-03 22:46 52.89496 19.83996 16860 ft 406 kts 313°
2026-05-03 22:46 52.91508 19.80668 17239 ft 409 kts 313°
2026-05-03 22:46 52.93512 19.77350 17662 ft 410 kts 313°
2026-05-03 22:46 52.95522 19.74015 18091 ft 411 kts 313°
2026-05-03 22:47 52.97544 19.70658 18519 ft 412 kts 313°
2026-05-03 22:47 52.99557 19.67309 18943 ft 412 kts 313°
2026-05-03 22:47 53.01577 19.63942 19373 ft 412 kts 313°
2026-05-03 22:47 53.03619 19.60536 19804 ft 412 kts 313°
2026-05-03 22:48 53.05633 19.57168 20238 ft 412 kts 313°
2026-05-03 22:48 53.07650 19.53794 20646 ft 413 kts 313°
2026-05-03 22:48 53.09657 19.50429 21047 ft 413 kts 313°
2026-05-03 22:48 53.11700 19.47001 21458 ft 413 kts 313°
2026-05-03 22:49 53.13717 19.43612 21854 ft 416 kts 313°
2026-05-03 22:49 53.15766 19.40164 22263 ft 420 kts 313°
2026-05-03 22:49 53.17828 19.36688 22667 ft 423 kts 313°
2026-05-03 22:49 53.19913 19.33170 23057 ft 423 kts 313°
2026-05-03 22:50 53.21967 19.29696 23555 ft 419 kts 313°
2026-05-03 22:50 53.24008 19.26243 24060 ft 417 kts 313°
2026-05-03 22:50 53.26041 19.22795 24532 ft 418 kts 313°
2026-05-03 22:50 53.28073 19.19345 25009 ft 417 kts 313°
2026-05-03 22:51 53.30094 19.15909 25479 ft 417 kts 313°
2026-05-03 22:51 53.32117 19.12466 25942 ft 416 kts 313°
2026-05-03 22:51 53.34163 19.08980 26395 ft 415 kts 313°
2026-05-03 22:51 53.36171 19.05549 26846 ft 414 kts 313°
2026-05-03 22:52 53.38178 19.02117 27299 ft 412 kts 313°
2026-05-03 22:52 53.40167 18.98709 27750 ft 410 kts 313°
2026-05-03 22:52 53.42168 18.95277 28215 ft 407 kts 312°
2026-05-03 22:52 53.44124 18.91918 28579 ft 407 kts 312°
2026-05-03 22:53 53.46088 18.88536 28839 ft 408 kts 312°
2026-05-03 22:53 53.48096 18.85073 29078 ft 410 kts 312°
2026-05-03 22:53 53.50088 18.81702 29331 ft 412 kts 314°
2026-05-03 22:53 53.52211 18.78443 29589 ft 415 kts 317°
2026-05-03 22:54 53.54456 18.75364 29844 ft 417 kts 320°
2026-05-03 22:54 53.56768 18.72485 30089 ft 419 kts 322°
2026-05-03 22:54 53.59140 18.69610 30319 ft 421 kts 322°
2026-05-03 22:54 53.61534 18.66723 30545 ft 423 kts 322°
2026-05-03 22:55 53.63900 18.63865 30766 ft 424 kts 322°
2026-05-03 22:55 53.66313 18.60942 30981 ft 426 kts 322°
2026-05-03 22:55 53.68704 18.58039 31184 ft 428 kts 322°
2026-05-03 22:55 53.71139 18.55075 31380 ft 430 kts 322°
2026-05-03 22:56 53.73548 18.52139 31586 ft 431 kts 322°
2026-05-03 22:56 53.75994 18.49151 31792 ft 432 kts 322°
2026-05-03 22:56 53.78435 18.46165 31992 ft 434 kts 322°
2026-05-03 22:56 53.80867 18.43185 32175 ft 435 kts 322°
2026-05-03 22:57 53.83325 18.40170 32362 ft 437 kts 322°
2026-05-03 22:57 53.85773 18.37161 32592 ft 437 kts 322°
2026-05-03 22:57 53.88216 18.34154 32821 ft 437 kts 321°
2026-05-03 22:57 53.90681 18.31116 33038 ft 438 kts 321°
2026-05-03 22:58 53.93137 18.28085 33237 ft 438 kts 321°
2026-05-03 22:58 53.95620 18.25017 33410 ft 440 kts 321°
2026-05-03 22:58 53.98089 18.21962 33575 ft 441 kts 321°
2026-05-03 22:58 54.00574 18.18880 33759 ft 442 kts 321°
2026-05-03 22:59 54.03030 18.15828 33890 ft 443 kts 321°
2026-05-03 22:59 54.08037 18.09595 33893 ft 444 kts 321°
2026-05-03 23:00 54.13015 18.03381 33890 ft 443 kts 321°
2026-05-03 23:00 54.17981 17.97161 33886 ft 444 kts 321°
2026-05-03 23:01 54.22973 17.90893 33880 ft 443 kts 321°
2026-05-03 23:01 54.27928 17.84651 33878 ft 443 kts 321°
2026-05-03 23:02 54.32871 17.78404 33875 ft 442 kts 321°
2026-05-03 23:02 54.37797 17.72160 33870 ft 442 kts 320°
2026-05-03 23:03 54.42753 17.65857 33867 ft 442 kts 320°
2026-05-03 23:03 54.47648 17.59615 33862 ft 441 kts 320°
2026-05-03 23:04 54.52571 17.53314 33863 ft 442 kts 320°
2026-05-03 23:04 54.57498 17.46991 33863 ft 442 kts 320°
2026-05-03 23:05 54.62389 17.40696 33861 ft 441 kts 320°
2026-05-03 23:05 54.67289 17.34369 33862 ft 441 kts 319°
2026-05-03 23:06 54.72183 17.28029 33863 ft 440 kts 319°
2026-05-03 23:06 54.77082 17.21664 33864 ft 440 kts 319°
2026-05-03 23:07 54.81962 17.15305 33865 ft 440 kts 319°
2026-05-03 23:07 54.86820 17.08952 33862 ft 440 kts 319°
2026-05-03 23:08 54.91684 17.02572 33860 ft 440 kts 319°
2026-05-03 23:08 54.96558 16.96158 33860 ft 439 kts 319°
2026-05-03 23:09 55.01414 16.89747 33856 ft 439 kts 319°
2026-05-03 23:09 55.06251 16.83341 33850 ft 440 kts 319°
2026-05-03 23:10 55.11140 16.76846 33853 ft 440 kts 319°
2026-05-03 23:10 55.15922 16.70313 33851 ft 439 kts 315°
2026-05-03 23:11 55.20360 16.63019 33851 ft 436 kts 310°
2026-05-03 23:11 55.24572 16.55395 33838 ft 436 kts 310°
2026-05-03 23:12 55.28846 16.47959 33839 ft 438 kts 313°
2026-05-03 23:12 55.33395 16.40754 33832 ft 439 kts 314°
2026-05-03 23:13 55.37912 16.33626 33835 ft 440 kts 313°
2026-05-03 23:13 55.42440 16.26449 33832 ft 440 kts 313°
2026-05-03 23:14 55.47014 16.19165 33829 ft 439 kts 313°
2026-05-03 23:14 55.51534 16.11940 33825 ft 439 kts 313°
2026-05-03 23:15 55.56082 16.04649 33822 ft 439 kts 313°
2026-05-03 23:15 55.60619 15.97351 33823 ft 439 kts 313°
2026-05-03 23:16 55.65118 15.90091 33821 ft 439 kts 313°
2026-05-03 23:16 55.69622 15.82796 33817 ft 440 kts 312°
2026-05-03 23:17 55.74140 15.75454 33816 ft 440 kts 312°
2026-05-03 23:17 55.78637 15.68128 33813 ft 440 kts 312°
2026-05-03 23:18 55.83113 15.60807 33811 ft 439 kts 312°
2026-05-03 23:18 55.87603 15.53440 33813 ft 439 kts 312°
2026-05-03 23:19 55.92081 15.46067 33815 ft 438 kts 312°
2026-05-03 23:19 55.96553 15.38680 33812 ft 438 kts 312°
2026-05-03 23:20 56.01018 15.31284 33811 ft 438 kts 311°
2026-05-03 23:20 56.05436 15.23943 33814 ft 438 kts 310°
2026-05-03 23:21 56.09887 15.16517 33812 ft 437 kts 311°
2026-05-03 23:21 56.14325 15.09088 33813 ft 438 kts 311°
2026-05-03 23:22 56.20975 14.97915 33817 ft 438 kts 311°
2026-05-03 23:22 56.25409 14.90434 33810 ft 437 kts 310°
2026-05-03 23:23 56.29815 14.82971 33804 ft 437 kts 310°
2026-05-03 23:23 56.34235 14.75458 33798 ft 437 kts 310°
2026-05-03 23:24 56.38639 14.67951 33788 ft 438 kts 310°
2026-05-03 23:24 56.43063 14.60383 33785 ft 438 kts 310°
2026-05-03 23:25 56.47498 14.52772 33780 ft 439 kts 310°
2026-05-03 23:25 56.51910 14.45176 33781 ft 438 kts 310°
2026-05-03 23:26 56.56298 14.37595 33778 ft 439 kts 310°
2026-05-03 23:26 56.60732 14.29910 33777 ft 438 kts 309°
2026-05-03 23:27 56.65116 14.22284 33778 ft 438 kts 309°
2026-05-03 23:27 56.69526 14.14589 33789 ft 439 kts 309°
2026-05-03 23:28 56.73902 14.06924 33787 ft 438 kts 309°
2026-05-03 23:28 56.78268 13.99254 33790 ft 438 kts 308°
2026-05-03 23:29 56.82642 13.91541 33788 ft 438 kts 309°
2026-05-03 23:29 56.87017 13.83800 33789 ft 438 kts 308°
2026-05-03 23:30 56.91383 13.76049 33790 ft 438 kts 308°
2026-05-03 23:30 56.95722 13.68323 33786 ft 437 kts 308°
2026-05-03 23:31 57.00103 13.60494 33785 ft 438 kts 308°
2026-05-03 23:31 57.04425 13.52740 33789 ft 438 kts 308°
2026-05-03 23:32 57.08765 13.44929 33785 ft 438 kts 308°
2026-05-03 23:32 57.13115 13.37069 33771 ft 439 kts 308°
2026-05-03 23:33 57.17455 13.29206 33774 ft 438 kts 307°
2026-05-03 23:33 57.21773 13.21353 33773 ft 438 kts 307°
2026-05-03 23:34 57.26112 13.13432 33772 ft 438 kts 307°
2026-05-03 23:34 57.30432 13.05520 33771 ft 439 kts 307°
2026-05-03 23:35 57.34730 12.97620 33765 ft 438 kts 307°
2026-05-03 23:35 57.39047 12.89663 33770 ft 438 kts 307°
2026-05-03 23:36 57.43357 12.81679 33766 ft 438 kts 307°
2026-05-03 23:36 57.47656 12.73697 33767 ft 439 kts 307°
2026-05-03 23:37 57.51976 12.65641 33770 ft 439 kts 307°
2026-05-03 23:37 57.56260 12.57625 33775 ft 440 kts 307°
2026-05-03 23:38 57.60573 12.49532 33776 ft 439 kts 307°
2026-05-03 23:38 57.64848 12.41476 33780 ft 440 kts 307°
2026-05-03 23:39 57.69161 12.33320 33787 ft 440 kts 306°
2026-05-03 23:39 57.73445 12.25188 33784 ft 439 kts 305°
2026-05-03 23:40 57.77718 12.17038 33783 ft 440 kts 305°
2026-05-03 23:40 57.81874 12.08717 33785 ft 439 kts 303°
2026-05-03 23:41 57.85988 12.00354 33785 ft 439 kts 304°
2026-05-03 23:41 57.90142 11.91896 33783 ft 439 kts 304°
2026-05-03 23:42 57.94284 11.83443 33776 ft 442 kts 304°
2026-05-03 23:42 57.98410 11.75009 33774 ft 440 kts 304°
2026-05-03 23:43 58.02548 11.66510 33785 ft 442 kts 304°
2026-05-03 23:43 58.06687 11.57986 33781 ft 441 kts 304°
2026-05-03 23:44 58.10829 11.49420 33779 ft 442 kts 304°
2026-05-03 23:44 58.14961 11.40842 33782 ft 442 kts 304°
2026-05-03 23:45 58.19123 11.32172 33782 ft 442 kts 303°
2026-05-03 23:45 58.23241 11.23562 33777 ft 442 kts 303°
2026-05-03 23:46 58.27348 11.14936 33776 ft 441 kts 303°
2026-05-03 23:46 58.31454 11.06289 33773 ft 441 kts 303°
2026-05-03 23:47 58.35539 10.97650 33767 ft 441 kts 303°
2026-05-03 23:47 58.39633 10.88959 33760 ft 439 kts 303°
2026-05-03 23:48 58.43693 10.80304 33754 ft 440 kts 303°
2026-05-03 23:48 58.47756 10.71614 33753 ft 440 kts 304°
2026-05-03 23:49 58.51830 10.62870 33744 ft 440 kts 304°
2026-05-03 23:49 58.55897 10.54108 33748 ft 440 kts 304°
2026-05-03 23:50 58.59929 10.45385 33739 ft 439 kts 304°
2026-05-03 23:50 58.63974 10.36600 33747 ft 441 kts 303°
2026-05-03 23:51 58.68003 10.27820 33737 ft 439 kts 303°
2026-05-03 23:51 58.72031 10.19009 33730 ft 439 kts 303°
2026-05-03 23:52 58.76035 10.10216 33731 ft 439 kts 303°
2026-05-03 23:52 58.80025 10.01427 33722 ft 437 kts 303°
2026-05-03 23:53 58.84038 9.92544 33727 ft 438 kts 303°
2026-05-03 23:53 58.88021 9.83691 33720 ft 439 kts 303°
2026-05-03 23:54 58.92003 9.74814 33722 ft 439 kts 303°
2026-05-03 23:54 58.95999 9.65868 33721 ft 440 kts 303°
2026-05-03 23:55 58.99996 9.56884 33711 ft 439 kts 303°
2026-05-03 23:55 59.03966 9.47926 33694 ft 439 kts 304°
2026-05-03 23:56 59.07941 9.38927 33696 ft 439 kts 304°
2026-05-03 23:56 59.11886 9.29956 33695 ft 439 kts 303°
2026-05-03 23:57 59.15835 9.20944 33701 ft 437 kts 303°
2026-05-03 23:57 59.19770 9.11927 33708 ft 438 kts 303°
2026-05-03 23:58 59.23697 9.02896 33698 ft 437 kts 303°
2026-05-03 23:58 59.27626 8.93821 33704 ft 437 kts 303°
2026-05-03 23:59 59.31535 8.84765 33702 ft 436 kts 304°
2026-05-03 23:59 59.35429 8.75703 33705 ft 434 kts 304°
2026-05-04 00:00 59.37355 8.71208 33568 ft 435 kts 304°
2026-05-04 00:00 59.39297 8.66668 33360 ft 432 kts 304°
2026-05-04 00:00 59.41232 8.62135 33131 ft 430 kts 304°
2026-05-04 00:00 59.43147 8.57640 32909 ft 428 kts 304°
2026-05-04 00:01 59.45038 8.53193 32677 ft 426 kts 304°
2026-05-04 00:01 59.46934 8.48723 32433 ft 425 kts 304°
2026-05-04 00:01 59.48848 8.44200 32198 ft 425 kts 304°
2026-05-04 00:01 59.50735 8.39727 31952 ft 425 kts 304°
2026-05-04 00:02 59.52595 8.35319 31712 ft 424 kts 304°
2026-05-04 00:02 59.54481 8.30843 31471 ft 423 kts 303°
2026-05-04 00:02 59.56366 8.26357 31231 ft 420 kts 303°
2026-05-04 00:02 59.58213 8.21951 30989 ft 418 kts 304°
2026-05-04 00:03 59.60062 8.17537 30719 ft 416 kts 303°
2026-05-04 00:03 59.61888 8.13168 30453 ft 414 kts 304°
2026-05-04 00:03 59.63725 8.08765 30181 ft 412 kts 304°
2026-05-04 00:03 59.65515 8.04464 29916 ft 410 kts 304°
2026-05-04 00:04 59.67340 8.00075 29642 ft 408 kts 304°
2026-05-04 00:04 59.69127 7.95766 29374 ft 406 kts 304°
2026-05-04 00:04 59.70903 7.91475 29094 ft 404 kts 304°
2026-05-04 00:04 59.72685 7.87164 28809 ft 402 kts 304°
2026-05-04 00:05 59.74432 7.82928 28488 ft 400 kts 303°
2026-05-04 00:05 59.76194 7.78652 28085 ft 397 kts 303°
2026-05-04 00:05 59.77931 7.74423 27665 ft 395 kts 303°
2026-05-04 00:05 59.79645 7.70244 27230 ft 392 kts 303°
2026-05-04 00:06 59.81366 7.66043 26788 ft 389 kts 303°
2026-05-04 00:06 59.83042 7.61942 26361 ft 386 kts 303°
2026-05-04 00:06 59.84736 7.57789 25916 ft 383 kts 303°
2026-05-04 00:06 59.86409 7.53677 25478 ft 380 kts 303°
2026-05-04 00:07 59.88060 7.49618 25048 ft 377 kts 303°
2026-05-04 00:07 59.89702 7.45570 24612 ft 374 kts 303°
2026-05-04 00:07 59.91311 7.41598 24178 ft 371 kts 303°
2026-05-04 00:07 59.92923 7.37609 23751 ft 368 kts 303°
2026-05-04 00:08 59.94534 7.33621 23317 ft 365 kts 302°
2026-05-04 00:08 59.96104 7.29724 22888 ft 363 kts 302°
2026-05-04 00:08 59.97665 7.25846 22463 ft 360 kts 302°
2026-05-04 00:08 59.99242 7.21921 22033 ft 357 kts 302°
2026-05-04 00:09 60.00767 7.18113 21614 ft 354 kts 302°
2026-05-04 00:09 60.02290 7.14308 21200 ft 351 kts 302°
2026-05-04 00:09 60.03822 7.10477 20774 ft 348 kts 302°
2026-05-04 00:09 60.05312 7.06740 20359 ft 346 kts 302°
2026-05-04 00:10 60.06797 7.03011 19940 ft 343 kts 302°
2026-05-04 00:10 60.08277 6.99292 19515 ft 341 kts 302°
2026-05-04 00:10 60.09739 6.95606 19091 ft 338 kts 302°
2026-05-04 00:10 60.11205 6.91910 18676 ft 336 kts 302°
2026-05-04 00:11 60.12661 6.88230 18255 ft 333 kts 302°
2026-05-04 00:11 60.14083 6.84630 17842 ft 331 kts 303°
2026-05-04 00:11 60.15493 6.81055 17425 ft 328 kts 302°
2026-05-04 00:11 60.16908 6.77461 17006 ft 326 kts 303°
2026-05-04 00:12 60.18304 6.73909 16592 ft 324 kts 303°
2026-05-04 00:12 60.19678 6.70410 16186 ft 321 kts 303°
2026-05-04 00:12 60.21058 6.66885 15776 ft 319 kts 303°
2026-05-04 00:12 60.22421 6.63406 15371 ft 316 kts 303°
2026-05-04 00:13 60.23713 6.59889 14958 ft 312 kts 300°
2026-05-04 00:13 60.24840 6.56218 14556 ft 308 kts 295°
2026-05-04 00:13 60.25821 6.52419 14149 ft 305 kts 293°
2026-05-04 00:13 60.26770 6.48563 13736 ft 310 kts 293°
2026-05-04 00:14 60.27728 6.44629 13295 ft 317 kts 293°
2026-05-04 00:14 60.28717 6.40566 12842 ft 324 kts 294°
2026-05-04 00:14 60.29710 6.36488 12394 ft 324 kts 294°
2026-05-04 00:14 60.30698 6.32430 11939 ft 322 kts 293°
2026-05-04 00:15 60.31675 6.28409 11498 ft 320 kts 293°
2026-05-04 00:15 60.32650 6.24382 11048 ft 318 kts 294°
2026-05-04 00:15 60.33620 6.20367 10613 ft 316 kts 294°
2026-05-04 00:15 60.34581 6.16385 10194 ft 312 kts 294°
2026-05-04 00:16 60.35522 6.12482 9772 ft 308 kts 294°
2026-05-04 00:16 60.36433 6.08706 9644 ft 294 kts 294°
2026-05-04 00:16 60.37307 6.05078 9680 ft 287 kts 294°
2026-05-04 00:16 60.38189 6.01402 9713 ft 287 kts 294°
2026-05-04 00:17 60.39048 5.97814 9736 ft 287 kts 294°
2026-05-04 00:17 60.39917 5.94177 9763 ft 287 kts 294°
2026-05-04 00:17 60.40781 5.90550 9795 ft 286 kts 294°
2026-05-04 00:17 60.41627 5.86998 9832 ft 273 kts 294°
2026-05-04 00:18 60.42437 5.83594 9681 ft 263 kts 294°
2026-05-04 00:18 60.43225 5.80269 9251 ft 263 kts 294°
2026-05-04 00:18 60.44008 5.76954 8868 ft 261 kts 294°
2026-05-04 00:18 60.44784 5.73665 8506 ft 259 kts 295°
2026-05-04 00:19 60.45562 5.70370 8144 ft 257 kts 295°
2026-05-04 00:19 60.46332 5.67105 7893 ft 250 kts 295°
2026-05-04 00:19 60.47073 5.64043 7863 ft 236 kts 300°
2026-05-04 00:19 60.48231 5.61760 7773 ft 237 kts 333°
2026-05-04 00:20 60.49874 5.61117 7807 ft 246 kts 357°
2026-05-04 00:20 60.51572 5.61235 7824 ft 246 kts 358°
2026-05-04 00:20 60.53299 5.61161 7824 ft 243 kts 348°
2026-05-04 00:20 60.54917 5.60389 7827 ft 240 kts 338°
2026-05-04 00:21 60.56509 5.59281 7829 ft 240 kts 337°
2026-05-04 00:21 60.58081 5.58120 7829 ft 239 kts 333°
2026-05-04 00:21 60.59513 5.56536 7823 ft 236 kts 321°
2026-05-04 00:21 60.60813 5.54474 7831 ft 234 kts 318°
2026-05-04 00:22 60.62066 5.52363 7822 ft 234 kts 317°
2026-05-04 00:22 60.63257 5.50121 7815 ft 233 kts 308°
2026-05-04 00:22 60.64208 5.47426 7828 ft 231 kts 300°
2026-05-04 00:22 60.65028 5.44615 7826 ft 231 kts 299°
2026-05-04 00:23 60.65831 5.41791 7818 ft 230 kts 296°
2026-05-04 00:23 60.66421 5.38767 7825 ft 230 kts 284°
2026-05-04 00:23 60.66726 5.35567 7826 ft 229 kts 279°
2026-05-04 00:23 60.66916 5.32313 7478 ft 233 kts 268°
2026-05-04 00:24 60.66373 5.29237 7075 ft 238 kts 234°
2026-05-04 00:24 60.65027 5.27208 6735 ft 244 kts 202°
2026-05-04 00:24 60.63339 5.26866 6434 ft 249 kts 180°
2026-05-04 00:24 60.61631 5.27094 6125 ft 247 kts 180°
2026-05-04 00:25 60.59927 5.27262 5829 ft 245 kts 181°
2026-05-04 00:25 60.58233 5.27411 5535 ft 243 kts 181°
2026-05-04 00:25 60.56538 5.27557 5236 ft 241 kts 181°
2026-05-04 00:25 60.54877 5.27702 4944 ft 240 kts 180°
2026-05-04 00:26 60.53212 5.27846 4645 ft 238 kts 181°
2026-05-04 00:26 60.51553 5.27819 4310 ft 235 kts 194°
2026-05-04 00:26 60.50199 5.26225 3978 ft 225 kts 233°
2026-05-04 00:26 60.49437 5.23507 3715 ft 224 kts 244°
2026-05-04 00:27 60.48719 5.20726 3415 ft 225 kts 243°
2026-05-04 00:27 60.47946 5.17939 3106 ft 225 kts 236°
2026-05-04 00:27 60.46762 5.16037 2949 ft 226 kts 197°
2026-05-04 00:27 60.45185 5.16069 2977 ft 232 kts 170°
2026-05-04 00:28 60.43616 5.16852 2844 ft 227 kts 168°
2026-05-04 00:28 60.42077 5.17542 2554 ft 225 kts 171°
2026-05-04 00:28 60.40541 5.18083 2240 ft 224 kts 172°
2026-05-04 00:28 60.39034 5.18569 1926 ft 217 kts 172°
2026-05-04 00:29 60.37566 5.19052 1667 ft 206 kts 172°
2026-05-04 00:29 60.36221 5.19506 1423 ft 188 kts 171°
2026-05-04 00:29 60.34978 5.19924 1155 ft 173 kts 171°
2026-05-04 00:29 60.33845 5.20303 890 ft 161 kts 171°
2026-05-04 00:30 60.32775 5.20661 656 ft 148 kts 170°
2026-05-04 00:30 60.31768 5.20998 472 ft 146 kts 170°
2026-05-04 00:30 60.30772 5.21328 277 ft 146 kts 169°
2026-05-04 00:30 60.29782 5.21648 146 ft 136 kts 169°
2026-05-04 00:31 60.29097 5.21898 162 ft 57 kts 172°
2026-05-04 00:31 60.28934 5.21962 164 ft 11 kts 151°
2026-05-04 00:31 60.28908 5.22081 165 ft 4 kts 78°
2026-05-04 00:31 60.28913 5.22126 166 ft 2 kts 78°
2026-05-04 00:32 60.28913 5.22127 166 ft 0 kts 78°
2026-05-04 00:32 60.28914 5.22130 166 ft 1 kts 78°
2026-05-04 00:32 60.28917 5.22164 167 ft 3 kts 79°
2026-05-04 00:32 60.28922 5.22233 169 ft 6 kts 82°
2026-05-04 00:33 60.28929 5.22328 170 ft 6 kts 77°
2026-05-04 00:33 60.28988 5.22379 172 ft 0 kts 14°
2026-05-04 00:34 60.28997 5.22384 172 ft 3 kts 14°
2026-05-04 00:34 60.29028 5.22454 173 ft 8 kts 76°
2026-05-04 00:34 60.29037 5.22566 175 ft 8 kts 81°
2026-05-04 00:34 60.29046 5.22678 178 ft 4 kts 82°
2026-05-04 00:35 60.29037 5.22724 179 ft 2 kts 143°
2026-05-04 00:35 60.29017 5.22726 179 ft 1 kts 181°
2026-05-04 00:35 60.28997 5.22725 179 ft 1 kts 182°
2026-05-04 00:35 60.28995 5.22724 179 ft 0 kts 182°